Home   Weather   Latvia   Riga   Past weeks
Flag for Latvia

Past Weather in Riga, Latvia — Yesterday and Last 2 Weeks

Currently: 27 °F. Light mixture of precip. Overcast. (Weather station: Riga Airport, Latvia). See more current weather

Past Weather in Riga — Graph

°F

Riga Temperature Yesterday

Maximum temperature yesterday: 32 °F (at 12:20 am)
Minimum temperature yesterday: 21 °F (at 6:50 pm)
Average temperature yesterday: 29 °F

High & Low Weather Summary for the Past Weeks

 TemperatureHumidityPressure
High52 °F (Nov 19, 8:50 pm)100% (Nov 17, 4:50 am)30.12 "Hg (Nov 17, 4:50 am)
Low21 °F (Nov 22, 7:20 am)57% (Nov 20, 1:50 pm)29.12 "Hg (Nov 30, 12:20 pm)
Average36 °F88%29.59 "Hg
* Reported Nov 17 4:20 am — Dec 2 4:50 am, Riga. Weather by CustomWeather, © 2021

Note: Actual official high and low records may vary slightly from our data, if they occured in-between our weather recording intervals... More about our weather records

Riga Weather History for the Previous 24 Hours

Scroll right to see more
 ConditionsComfort  
Time TempWeatherWind HumidityBarometerVisibility
4:50 am
Thu, Dec 2
27 °FLight snow. Overcast.12 mph93%29.12 "Hg4 mi
4:20 am28 °FLight snow. Overcast.9 mph86%29.15 "HgN/A
3:50 am27 °FLight snow. Mostly cloudy.12 mph93%29.15 "HgN/A
3:20 am27 °FSnow. Mostly cloudy.10 mph93%29.18 "Hg2 mi
2:50 am27 °FSnow. Mostly cloudy.8 mph93%29.18 "Hg1 mi
2:20 am27 °FSnow. Mostly cloudy.7 mph93%29.21 "Hg2 mi
1:50 am27 °FSnow. Overcast.8 mph93%29.24 "Hg3 mi
1:20 am27 °FSnow. Overcast.7 mph93%29.24 "Hg2 mi
12:50 am27 °FSnow. Mostly cloudy.7 mph93%29.27 "Hg2 mi
12:20 am27 °FLight snow. Overcast.6 mph86%29.27 "HgN/A
11:50 pm
Wed, Dec 1
27 °FMostly cloudy.6 mph86%29.30 "HgN/A
11:20 pm27 °FPassing clouds.3 mph86%29.30 "HgN/A
10:50 pm27 °FClear.3 mph80%29.33 "Hg10 mi
10:20 pm25 °FClear.5 mph86%29.33 "Hg10 mi
9:20 pm23 °FClear.6 mph93%29.33 "Hg10 mi
8:50 pm23 °FClear.7 mph93%29.36 "Hg10 mi
8:20 pm21 °FClear.6 mph93%29.36 "Hg10 mi
7:50 pm21 °FClear.5 mph93%29.36 "Hg10 mi
7:20 pm21 °FClear.6 mph93%29.36 "Hg10 mi
6:50 pm21 °FClear.5 mph93%29.36 "Hg10 mi
6:20 pm23 °FClear.5 mph93%29.36 "Hg10 mi
5:50 pm25 °FPassing clouds.5 mph93%29.36 "HgN/A
5:20 pm25 °FClear.5 mph86%29.39 "Hg10 mi
4:50 pm27 °FClear.3 mph86%29.39 "Hg10 mi
4:20 pm28 °FClear.5 mph80%29.39 "Hg10 mi
3:50 pm28 °FPassing clouds.5 mph80%29.39 "HgN/A
3:20 pm30 °FPassing clouds.5 mph75%29.39 "HgN/A
2:50 pm30 °FPassing clouds.6 mph69%29.39 "HgN/A
2:20 pm30 °FPassing clouds.6 mph69%29.39 "HgN/A
1:50 pm32 °FPassing clouds.6 mph64%29.36 "HgN/A
1:20 pm32 °FSunny.6 mph60%29.36 "Hg10 mi
12:50 pm32 °FPassing clouds.6 mph64%29.36 "HgN/A
12:20 pm30 °FPassing clouds.5 mph75%29.36 "HgN/A
11:50 am30 °FPassing clouds.8 mph75%29.36 "HgN/A
11:20 am32 °FScattered clouds.8 mph75%29.36 "HgN/A
10:50 am30 °FScattered clouds.7 mph80%29.36 "HgN/A
10:20 am30 °FBroken clouds.8 mph86%29.36 "HgN/A
9:50 am30 °FSnow flurries. Broken clouds.7 mph86%29.33 "HgN/A
9:20 am30 °FSnow showers. Partly sunny.7 mph86%29.33 "Hg2 mi
8:50 am30 °FSnow flurries. Partly sunny.6 mph86%29.33 "Hg6 mi
8:20 am30 °FSnow showers. Overcast.7 mph86%29.30 "Hg3 mi
7:50 am28 °FPassing clouds.6 mph93%29.30 "HgN/A
7:20 am30 °FMostly cloudy.6 mph86%29.30 "HgN/A
6:50 am28 °FMostly cloudy.6 mph93%29.30 "HgN/A
6:20 am28 °FMostly cloudy.7 mph86%29.30 "HgN/A
Weather by CustomWeather, © 2021

See weather overview